Terug naar catalogus

TAIJING-3 02

ActiefWetenschapSSO
NORAD 58822·PAYLOAD·🇨🇳 China

Gelanceerd Jan 23, 2024 vanaf Jiuquan Satellite Launch Center

Loading…

Volgende Passages (komende 24 uur)

TLE

VersSource: Space-Track

Epoch: Sep 14, 2026, 23:21 UTC

1 58822U 24016C   26257.97336689  .00007383  00000-0  28634-3 0  9998
2 58822  97.4314 338.0545 0008647 236.1227 123.9190 15.26384904146829

Volg TAIJING-3 02 in realtime met AllMySat

Download on the App Store